Weather History for Big Rapids, MI

Change the Weather History Date:

Monday, April 7, 2014

  Actual Average Record
Temperature  
Mean Temperature 42 °F -  
Max Temperature 55 °F 51 °F 82 °F (1991)
Min Temperature 29 °F 27 °F 1 °F (1982)
Degree Days  
Heating Degree Days 23    
Moisture  
Dew Point 28 °F    
Average Humidity 62    
Maximum Humidity 100    
Minimum Humidity 28    
Precipitation  
Precipitation 0.00 in - - ()
Sea Level Pressure  
Sea Level Pressure 29.78 in    
Wind  
Wind Speed 2 mph (East)    
Max Wind Speed 12 mph    
Max Gust Speed 17 mph    
Visibility 10 miles    
Events      
Averages and records for this station are not official NWS values.
T = Trace of Precipitation, MM = Missing Value Source: NWS Daily Summary

Daily Weather History Graph

Daily Weather History Graph

Search for Another Location

Airport:

Trip Planner

Search our weather history database for the weather conditions in past years. The results will help you decide how hot, cold, wet, or windy it might be!

Date:

Astronomy

Apr. 07, 2014 Rise Set
Actual Time 7:12 AM EDT 8:16 PM EDT
Civil Twilight 6:43 AM EDT 8:45 PM EDT
Nautical Twilight 6:08 AM EDT 9:20 PM EDT
Astronomical Twilight 5:31 AM EDT 9:57 PM EDT
Moon 1:03 PM EDT (4/7) 2:58 AM EDT (4/7)
Length of Visible Light 14h 01m
Length of Day
13h 03m
First Quarter, 53% of the Moon is Illuminated
Apr 7
First Quarter
Apr 15
Full
Apr 22
Last Quarter
Apr 29
New
May 6
First Quarter

Hourly Weather History & Observations

Time (EDT) Temp. Windchill Dew Point Humidity Pressure Visibility Wind Dir Wind Speed Gust Speed Precip Events Conditions
12:15 AM 37.4 °F - 29.8 °F 74% 29.98 in 10.0 mi Calm Calm - N/A   Scattered Clouds
12:34 AM 36.7 °F - 30.4 °F 78% 29.97 in 10.0 mi Calm Calm - N/A   Scattered Clouds
12:55 AM 37.2 °F - 30.2 °F 76% 29.97 in 10.0 mi Calm Calm - N/A   Scattered Clouds
1:15 AM 35.8 °F - 30.0 °F 80% 29.97 in 10.0 mi Calm Calm - N/A   Scattered Clouds
1:34 AM 34.9 °F - 30.6 °F 84% 29.97 in 10.0 mi Calm Calm - N/A   Scattered Clouds
1:55 AM 36.0 °F - 30.2 °F 80% 29.96 in 10.0 mi Calm Calm - N/A   Scattered Clouds
2:15 AM 34.5 °F - 30.0 °F 84% 29.96 in 10.0 mi Calm Calm - N/A   Clear
2:34 AM 34.7 °F - 30.0 °F 83% 29.95 in 10.0 mi Calm Calm - N/A   Clear
2:55 AM 34.5 °F - 30.2 °F 84% 29.94 in 10.0 mi Calm Calm - N/A   Clear
3:15 AM 34.2 °F - 29.8 °F 84% 29.94 in 10.0 mi Calm Calm - N/A   Clear
3:34 AM 33.1 °F - 29.8 °F 88% 29.93 in 10.0 mi Calm Calm - N/A   Scattered Clouds
3:55 AM 33.1 °F - 29.3 °F 86% 29.92 in 10.0 mi Calm Calm - N/A   Scattered Clouds
4:15 AM 32.5 °F - 28.4 °F 85% 29.92 in 10.0 mi Calm Calm - N/A   Clear
4:34 AM 32.0 °F - 28.2 °F 86% 29.91 in 10.0 mi Calm Calm - N/A   Clear
4:55 AM 31.3 °F - 28.2 °F 88% 29.90 in 10.0 mi Calm Calm - N/A   Clear
5:15 AM 30.9 °F - 30.2 °F 97% 29.90 in 10.0 mi Calm Calm - N/A   Scattered Clouds
5:34 AM 30.7 °F - 28.6 °F 92% 29.89 in 10.0 mi Calm Calm - N/A   Clear
5:55 AM 30.2 °F - 29.8 °F 99% 29.89 in 10.0 mi Calm Calm - N/A   Clear
6:15 AM 29.7 °F - 27.1 °F 90% 29.87 in 10.0 mi Calm Calm - N/A   Clear
6:34 AM 29.3 °F - 28.4 °F 96% 29.87 in 10.0 mi Calm Calm - N/A   Clear
6:55 AM 29.3 °F - 29.3 °F 100% 29.89 in 10.0 mi Calm Calm - N/A   Clear
7:15 AM 30.2 °F - 29.5 °F 97% 29.89 in 7.0 mi Calm Calm - N/A   Clear
7:34 AM 29.5 °F - 29.1 °F 99% 29.90 in 7.0 mi Calm Calm - N/A   Clear
7:55 AM 30.4 °F - 30.0 °F 99% 29.91 in 7.0 mi Calm Calm - N/A   Clear
8:15 AM 30.2 °F - 30.2 °F 100% 29.91 in 7.0 mi Calm Calm - N/A   Clear
8:35 AM 32.0 °F - 31.8 °F 99% 29.91 in 7.0 mi Calm Calm - N/A   Clear
8:55 AM 32.0 °F - 31.8 °F 99% 29.91 in 7.0 mi Calm Calm - N/A   Clear
9:14 AM 32.5 °F - 32.2 °F 99% 29.89 in 7.0 mi Calm Calm - N/A   Clear
9:35 AM 35.8 °F - 33.1 °F 90% 29.87 in 7.0 mi Calm Calm - N/A   Clear
9:55 AM 37.4 °F - 30.2 °F 75% 29.86 in 10.0 mi Calm Calm - N/A   Clear
10:14 AM 40.3 °F - 30.4 °F 68% 29.85 in 10.0 mi Calm Calm - N/A   Clear
10:35 AM 42.3 °F - 29.8 °F 61% 29.85 in 10.0 mi Calm Calm - N/A   Clear
10:54 AM 44.6 °F - 31.1 °F 59% 29.84 in 10.0 mi Calm Calm - N/A   Clear
11:15 AM 46.6 °F - 30.2 °F 53% 29.84 in 10.0 mi SSE 4.6 mph - N/A   Clear
11:35 AM 48.2 °F - 30.2 °F 50% 29.82 in 10.0 mi South 5.8 mph - N/A   Clear
11:55 AM 48.7 °F - 29.3 °F 47% 29.81 in 10.0 mi SE 6.9 mph - N/A   Clear
12:15 PM 48.9 °F - 28.4 °F 45% 29.80 in 10.0 mi East 10.4 mph 17.3 mph N/A   Clear
12:34 PM 49.6 °F - 28.2 °F 44% 29.79 in 10.0 mi East 9.2 mph - N/A   Clear
12:55 PM 50.0 °F - 27.9 °F 42% 29.77 in 10.0 mi East 11.5 mph - N/A   Clear
1:15 PM 50.9 °F - 26.6 °F 39% 29.76 in 10.0 mi East 10.4 mph - N/A   Clear
1:34 PM 51.8 °F - 25.7 °F 36% 29.75 in 10.0 mi SSE 6.9 mph - N/A   Clear
1:55 PM 52.5 °F - 25.2 °F 35% 29.74 in 10.0 mi ENE 9.2 mph - N/A   Clear
2:15 PM 51.1 °F - 23.9 °F 35% 29.73 in 10.0 mi East 8.1 mph - N/A   Clear
2:34 PM 52.5 °F - 26.2 °F 36% 29.71 in 10.0 mi East 5.8 mph - N/A   Clear
2:55 PM 53.6 °F - 26.2 °F 35% 29.71 in 10.0 mi East 9.2 mph - N/A   Clear
3:15 PM 53.8 °F - 22.8 °F 30% 29.70 in 10.0 mi East 6.9 mph - N/A   Clear
3:34 PM 54.7 °F - 24.4 °F 31% 29.68 in 10.0 mi ESE 9.2 mph - N/A   Clear
4:15 PM 55.0 °F - 24.6 °F 31% 29.65 in 10.0 mi East 9.2 mph - N/A   Clear
4:34 PM 55.6 °F - 25.3 °F 31% 29.64 in 10.0 mi East 9.2 mph - N/A   Clear
4:55 PM 55.0 °F - 25.3 °F 32% 29.63 in 10.0 mi NE 10.4 mph - N/A   Clear
5:15 PM 54.7 °F - 21.9 °F 28% 29.63 in 10.0 mi ENE 6.9 mph - N/A   Clear
5:35 PM 54.9 °F - 23.5 °F 30% 29.62 in 10.0 mi ENE 5.8 mph - N/A   Clear
5:55 PM 54.5 °F - 22.5 °F 29% 29.62 in 10.0 mi ENE 5.8 mph - N/A   Clear
6:15 PM 53.8 °F - 23.0 °F 30% 29.62 in 10.0 mi ESE 5.8 mph - N/A   Clear
6:35 PM 52.9 °F - 24.3 °F 33% 29.62 in 10.0 mi East 6.9 mph - N/A   Clear
6:55 PM 52.0 °F - 24.4 °F 34% 29.62 in 10.0 mi East 5.8 mph - N/A   Clear
7:14 PM 51.6 °F - 25.3 °F 36% 29.61 in 10.0 mi ESE 4.6 mph - N/A   Scattered Clouds
7:35 PM 50.7 °F - 26.1 °F 38% 29.60 in 10.0 mi Calm Calm - N/A   Scattered Clouds
7:55 PM 50.7 °F - 25.2 °F 37% 29.60 in 10.0 mi South 4.6 mph - N/A   Clear
8:14 PM 50.9 °F - 23.2 °F 34% 29.60 in 10.0 mi NNW 3.5 mph - N/A   Scattered Clouds
8:35 PM 49.8 °F - 23.7 °F 36% 29.60 in 10.0 mi Calm Calm - N/A   Clear
8:55 PM 49.8 °F - 23.0 °F 35% 29.60 in 10.0 mi Calm Calm - N/A   Clear
9:14 PM 46.0 °F - 29.3 °F 52% 29.60 in 10.0 mi Calm Calm - N/A   Scattered Clouds
9:35 PM 44.8 °F - 30.6 °F 57% 29.59 in 10.0 mi Calm Calm - N/A   Scattered Clouds
9:55 PM 44.4 °F - 29.7 °F 56% 29.59 in 10.0 mi Calm Calm - N/A   Clear
10:14 PM 44.2 °F - 27.7 °F 52% 29.59 in 10.0 mi Calm Calm - N/A   Clear
10:35 PM 41.0 °F 39.0 °F 30.9 °F 67% 29.59 in 10.0 mi SE 3.5 mph - N/A   Clear
10:54 PM 43.5 °F - 28.2 °F 55% 29.58 in 10.0 mi Calm Calm - N/A   Clear
11:15 PM 42.1 °F - 31.3 °F 66% 29.57 in 10.0 mi Calm Calm - N/A   Clear
11:35 PM 43.0 °F - 28.4 °F 56% 29.57 in 10.0 mi Calm Calm - N/A   Clear
11:54 PM 42.8 °F - 27.0 °F 54% 29.56 in 10.0 mi Calm Calm - N/A   Clear